This demonstration page uses our WeatherBlox Daily Observations layout. Learn more.

Hourly Observations for March 16, 2017

Temp ( °F °C ) Dew Point ( °F °C ) Humidity (%) Winds ( mph kmh ) Pressure ( in mb ) Visibility ( mi km ) Precip ( " mm )
12:15 am 00:15 Clear 40 4.6 26 -3.1 58 58 SSE 13 20 30.09 1019 10 16.0934 0 0
12:35 am 00:35 Clear 40 4.2 27 -3 60 60 SSE 12 19 30.09 1019 10 16.0934 0 0
12:55 am 00:55 Clear 39 4 27 -3 61 61 SSE 12 19 30.09 1019 10 16.0934 0 0
1:15 am 01:15 Clear 37 3 26 -3.2 64 64 SSE 12 19 30.06 1018 10 16.0934 0 0
1:35 am 01:35 Clear 37 2.6 26 -3.2 66 66 SSE 10 17 30.09 1019 10 16.0934 0 0
1:55 am 01:55 Clear 36 2.3 26 -3.2 67 67 SSE 12 19 30.09 1019 10 16.0934 0 0
2:15 am 02:15 Clear 36 2 26 -3.1 69 69 SSE 9 15 30.09 1019 10 16.0934 0 0
2:35 am 02:35 Clear 36 2 26 -3.1 69 69 S 13 20 30.09 1019 10 16.0934 0 0
2:55 am 02:55 Clear 36 2 27 -3 70 70 S 13 20 30.09 1019 10 16.0934 0 0
3:15 am 03:15 Clear 36 2 27 -2.9 70 70 S 13 20 30.09 1019 10 16.0934 0 0
3:35 am 03:35 Clear 35 1.6 27 -3 72 72 SSE 9 15 30.06 1018 10 16.0934 0 0
3:55 am 03:55 Clear 34 1.1 27 -3 74 74 S 9 15 30.06 1018 10 16.0934 0 0
4:15 am 04:15 Clear 35 1.5 27 -2.7 74 74 SSE 9 15 30.06 1018 10 16.0934 0 0
4:35 am 04:35 Clear 33 0.8 27 -3 76 76 S 8 13 30.06 1018 10 16.0934 0 0
4:55 am 04:55 Clear 33 0.8 27 -2.8 77 77 S 8 13 30.06 1018 10 16.0934 0 0
5:15 am 05:15 Clear 33 0.6 27 -2.7 79 79 SSE 8 13 30.03 1017 10 16.0934 0 0
5:35 am 05:35 Clear 32 0 27 -3 80 80 S 8 13 30.03 1017 10 16.0934 0 0
5:55 am 05:55 Clear 32 -0.1 26 -3.1 80 80 S 8 13 30.03 1017 10 16.0934 0 0
6:15 am 06:15 Clear 32 -0.1 27 -3 81 81 SSE 9 15 30.03 1017 10 16.0934 0 0
6:35 am 06:35 Clear 32 0 27 -2.7 82 82 S 9 15 30.03 1017 10 16.0934 0 0
6:55 am 06:55 Clear 31 -0.5 26 -3.1 83 83 S 8 13 30 1016 10 16.0934 0 0
7:15 am 07:15 Clear 30 -0.9 27 -3 86 86 S 8 13 30 1016 10 16.0934 0 0
7:35 am 07:35 Clear 30 -1 26 -3.1 86 86 S 7 11 30 1016 10 16.0934 0 0
7:55 am 07:55 Sunny 31 -0.8 27 -2.9 86 86 S 8 13 30 1016 10 16.0934 0 0
8:15 am 08:15 Sunny 31 -0.5 27 -2.7 85 85 S 8 13 30 1016 10 16.0934 0 0
8:35 am 08:35 Sunny 32 0.1 28 -2.2 85 85 S 9 15 30 1016 10 16.0934 0 0
8:55 am 08:55 Sunny 35 1.5 29 -1.6 80 80 S 8 13 30 1016 10 16.0934 0 0
9:15 am 09:15 Sunny 36 2.3 30 -1.3 77 77 S 9 15 29.97 1015 10 16.0934 0 0
9:35 am 09:35 Sunny 40 4.4 32 -0.1 73 73 SSW 13 20 29.97 1015 10 16.0934 0 0
9:55 am 09:55 Sunny 42 5.7 32 0 67 67 SSW 12 19 29.94 1014 10 16.0934 0 0
10:15 am 10:15 Sunny 45 7.2 33 0.3 62 62 SSW 10 17 29.94 1014 10 16.0934 0 0
10:35 am 10:35 Sunny 47 8.1 33 0.5 59 59 SW 9 15 29.94 1014 10 16.0934 0 0
10:55 am 10:55 Sunny 48 9 33 0.5 56 56 SW 8 13 29.91 1013 10 16.0934 0 0
11:15 am 11:15 Sunny 51 10.3 33 0.7 52 52 SSW 9 15 29.91 1013 10 16.0934 0 0
11:35 am 11:35 Sunny 53 11.4 33 0.7 48 48 SSW 8 13 29.91 1013 10 16.0934 0 0
11:55 am 11:55 Sunny 54 12.3 33 0.7 45 45 SSW 7 11 29.85 1011 10 16.0934 0 0
12:15 pm 12:15 Sunny 57 14.1 33 0.7 40 40 S 9 15 29.85 1011 10 16.0934 0 0
12:35 pm 12:35 Sunny 60 15.3 33 0.8 38 38 S 8 13 29.83 1010 10 16.0934 0 0
12:55 pm 12:55 Sunny 63 17 33 0.6 33 33 S 10 17 29.8 1009 10 16.0934 0 0
1:15 pm 13:15 Sunny 65 18.3 33 0.7 31 31 SSW 9 15 29.77 1008 10 16.0934 0 0
1:35 pm 13:35 Sunny 68 19.8 33 0.5 28 28 S 10 17 29.77 1008 10 16.0934 0 0
1:55 pm 13:55 Sunny 70 20.9 32 0.1 25 25 S 12 19 29.74 1007 10 16.0934 0 0
2:15 pm 14:15 Sunny 71 21.5 32 0 24 24 S 13 20 29.71 1006 10 16.0934 0 0
2:35 pm 14:35 Sunny 71 21.8 32 -0.2 23 23 S 14 22 29.68 1005 10 16.0934 0 0
2:55 pm 14:55 Sunny 71 21.6 32 0 24 24 S 14 22 29.68 1005 10 16.0934 0 0
3:15 pm 15:15 Sunny 71 21.8 32 0.1 24 24 S 18 30 29.68 1005 10 16.0934 0 0
3:35 pm 15:35 Sunny 71 21.6 33 0.5 25 25 S 16 26 29.68 1005 10 16.0934 0 0
3:55 pm 15:55 Sunny 72 22 34 1.1 25 25 S 18 30 29.68 1005 10 16.0934 0 0
4:15 pm 16:15 Sunny 72 22.1 35 1.7 26 26 S 15 24 29.68 1005 10 16.0934 0 0
4:35 pm 16:35 Sunny 73 22.8 35 1.6 25 25 S 15 24 29.68 1005 10 16.0934 0 0
4:55 pm 16:55 Sunny 73 22.9 35 1.7 25 25 S 15 24 29.68 1005 10 16.0934 0 0
5:15 pm 17:15 Sunny 74 23.2 35 1.6 24 24 S 21 33 29.65 1004 10 16.0934 0 0
5:35 pm 17:35 Sunny 74 23.6 36 2 24 24 S 20 31 29.65 1004 10 16.0934 0 0
5:55 pm 17:55 Sunny 75 23.7 36 2.1 24 24 S 21 33 29.65 1004 10 16.0934 0 0
6:15 pm 18:15 Sunny 75 23.7 36 2.3 25 25 S 20 31 29.65 1004 10 16.0934 0 0
6:35 pm 18:35 Sunny 74 23.3 37 2.6 26 26 S 20 31 29.65 1004 10 16.0934 0 0
6:55 pm 18:55 Sunny 72 22.4 37 3 28 28 S 16 26 29.65 1004 10 16.0934 0 0
7:15 pm 19:15 Sunny 70 21 37 3 31 31 SW 12 19 29.68 1005 10 16.0934 0 0
7:35 pm 19:35 Sunny 69 20.7 38 3.1 31 31 SSW 16 26 29.71 1006 10 16.0934 0 0
7:55 pm 19:55 Clear 65 18.6 37 2.6 35 35 SW 12 19 29.71 1006 10 16.0934 0 0
8:15 pm 20:15 Clear 64 17.6 37 2.6 37 37 SW 8 13 29.71 1006 10 16.0934 0 0
8:35 pm 20:35 Clear 64 17.7 35 1.8 35 35 SW 7 11 29.71 1006 10 16.0934 0 0
8:55 pm 20:55 Clear 65 18.1 28 -2.1 25 25 W 12 19 29.71 1006 10 16.0934 0 0
9:15 pm 21:15 Clear 66 19 24 -4.3 20 20 W 10 17 29.71 1006 10 16.0934 0 0
9:35 pm 21:35 Clear 65 18.5 23 -4.8 20 20 WNW 10 17 29.71 1006 10 16.0934 0 0
9:55 pm 21:55 Clear 64 17.6 25 -3.7 23 23 NNW 16 26 29.71 1006 10 16.0934 0 0
10:15 pm 22:15 Clear 63 17.2 27 -3 25 25 NNW 15 24 29.77 1008 10 16.0934 0 0
10:35 pm 22:35 Clear 60 15.8 28 -2.3 29 29 N 14 22 29.77 1008 10 16.0934 0 0
10:55 pm 22:55 Clear 60 15.4 28 -2 30 30 NNW 15 24 29.77 1008 10 16.0934 0 0
11:15 pm 23:15 Clear 58 14.5 28 -2 32 32 NNW 12 19 29.8 1009 10 16.0934 0 0
11:35 pm 23:35 Clear 58 14.5 29 -1.5 33 33 N 13 20 29.8 1009 10 16.0934 0 0
11:55 pm 23:55 Clear 58 14.3 30 -1.1 35 35 N 12 19 29.85 1011 10 16.0934 0 0

Powered by AerisWeather